Regional Weather Roundup
Issued by NWS

Home | Current Version | Previous Version | Graphics & Text | Print | Product List | Glossary On
Versions: 1 2 3 4 5 6 7 8 9 10 11 12 13 14 15 16 17 18 19 20 21 22 23 24 25 26 27 28 29 30 31 32 33 34 35 36 37 38 39 40 41 42 43 44 45 46 47 48 49 50
000
ASUS43 KIND 250759
RWRIN

WEATHER ROUNDUP FOR INDIANA
NATIONAL WEATHER SERVICE INDIANAPOLIS IN
400 AM EDT SAT APR 25 2015

NOTE: "FAIR" INDICATES FEW OR NO CLOUDS BELOW 12,000 FEET WITH NO
SIGNIFICANT WEATHER AND/OR OBSTRUCTIONS TO VISIBILITY.

* - STATION DOES NOT REPORT WEATHER SUCH AS PRECIPITATION OR FOG.

+ - STATION NOT QUALITY CONTROLLED BY THE NATIONAL WEATHER SERVICE.
    USE DATA WITH CAUTION...ESPECIALLY DEWPOINT AND RELATIVE
    HUMIDITY OBSERVATIONS.

INZ001>003-010>013-019-020-250900-
NORTHWEST INDIANA

CITY           SKY/WX    TMP DP  RH WIND       PRES   REMARKS
GARY /AIRPORT/ CLOUDY    46  38  73 E15G21    29.82F
KNOX *+        CLOUDY    43  32  65 E15G22    29.82F
RENSSELAER +   LGT RAIN  48  37  66 E14       29.78F

$$

LMZ046-743>745-250900-
SOUTHERN LAKE MICHIGAN

STATION/POSITION TIME  TEMP    WIND        PRES    WAVE
                       AIR SEA DIR/SP/G            HT
                 (UTC) (F)     (DEG/KT/KT) (MB)    (FT)
BURNS HARBOR     0700   46      90/ 15/ 18 1011.2F
MICHIGAN CITY    0700   44      50/ 16/ 21   N/A
5NW MICH CITY    0700   45 44  100/ 16/ 19   N/A     3

$$

INZ004-005-014>016-021>024-250900-
NORTH CENTRAL INDIANA

CITY           SKY/WX    TMP DP  RH WIND       PRES   REMARKS
GOSHEN         CLOUDY    43  38  82 E15       29.87F
SOUTH BEND     CLOUDY    45  39  79 E9G20     29.86F
WARSAW +       CLOUDY    43  39  87 E10G17    29.87F

$$

INZ006>009-017-018-025>027-250900-
NORTHEAST INDIANA

CITY           SKY/WX    TMP DP  RH WIND       PRES   REMARKS
ANGOLA *+      MOCLDY    43  37  81 E12       29.92F
FORT WAYNE     CLOUDY    48  34  58 E17G24    29.89F

$$

INZ028-029-035-036-043>045-051>053-250900-
WEST CENTRAL INDIANA

CITY           SKY/WX    TMP DP  RH WIND       PRES   REMARKS
CRAWFORDSVL +  CLOUDY    49  35  58 SE10      29.79F
GREENCASTLE +  CLOUDY    46  39  76 E7        29.80F
LAFAYETTE      CLOUDY    51  37  58 E9        29.79F
TERRE HAUTE    LGT RAIN  50  44  80 E8        29.76F

$$

INZ030>032-037>040-046>048-054>057-064-065-250900-
CENTRAL INDIANA

CITY           SKY/WX    TMP DP  RH WIND       PRES   REMARKS
FRANKFORT +    CLOUDY    52  38  58 E8        29.83F
GREENWOOD *+   CLOUDY    50  39  66 E5        29.83F
INDIANAPOLIS   LGT RAIN  50  42  74 E8        29.81F
-EAGLE CREEK   CLOUDY    50  43  77 SE6       29.81F
KOKOMO *+      CLOUDY    50  36  57 E12       29.83F
MT COMFORT *+  CLOUDY    50  36  57 E9        29.84F
SHELBYVILLE    CLOUDY    53  42  66 SE9       29.84F

$$

INZ033-034-041-042-049-050-058-059-250900-
EAST CENTRAL INDIANA

CITY           SKY/WX    TMP DP  RH WIND       PRES   REMARKS
MUNCIE         CLOUDY    50  38  63 SE7       29.85F

$$

INZ060-061-067>069-081>083-085>088-250900-
SOUTHWEST INDIANA

CITY           SKY/WX    TMP DP  RH WIND       PRES   REMARKS
EVANSVILLE     CLOUDY    56  44  64 SE3       29.76F
HUNTINGBURG *+ CLOUDY    55  41  58 SE5       29.78F

$$

INZ062-063-066-070>080-084-089>092-250900-
SOUTH CENTRAL AND SOUTHEAST INDIANA

CITY           SKY/WX    TMP DP  RH WIND       PRES   REMARKS
BLOOMINGTON    CLOUDY    52  45  77 E7        29.79F
MADISON *+     CLOUDY    50  41  71 NE7       29.85F
SEYMOUR +      CLOUDY    52  46  82 NE8       29.82F

$$



USA.gov is the U.S. government's official web portal to all federal, state and local government web resources and services.